Starlink 1716

operational
NORAD ID: 46672 Int'l Des: 2020-073 Owner: SPXS Country: US Constellation: starlink
LEOCIRCULARSTARLINK_TYPE

Starlink 1716について

説明を読み込み中...

リアルタイム位置

3D地球を読み込み中...

次回通過

高度履歴

Altitude vs Time

uPlot chart will show altitude changes over time

軌道要素

1 46672U 20073C 25298.50003471 .01278340 00000-0 38465-1 0 9995
2 46672 53.0535 127.4226 0000502 104.2112 227.6309 15.31008484 5828
Epoch: Oct 25, 2025 • Age: 5 hours

現在のステータス

高度 476.7 km
速度 7.63 km/s
衛星直下点 49.75°N, 49.4°W
打ち上げ日 Oct 18, 2020
運用期間 5 years
タイプ internet

技術仕様

分類 Payload
質量 260.00 kg
乾燥質量 248.00 kg
総質量 260.00 kg
長さ 0.20 m
直径 2.80 m
スパン 9.00 m
形状 Box + pan
製造者 SPXS
バスタイプ Starlink
フェーズステータス In Orbit
所有者/国 SPXS/US

大規模コンステレーション

Loading constellations...